sat.trackr.live / text

‹ back to catalog

STARLINK-34855

NORAD 65416 · 2025-192N

PAYLOAD ACTIVE UNKNOWN

§ Identity

Operator
Country
US
Launch date
2025-08-31
Launch site
AFETR
Launch vehicle
Mass (kg)
RCS (m²)

Purposes: comms

External: N2YO · Heavens-Above · Gunter

§ Orbital elements

Epoch: 2026-05-24T17:58:12.405216Z

Period
94.11 min
Inclination
53.1569°
Eccentricity
0.0001009
Mean motion
15.30195542 rev/d
Perigee alt
474.5 km
Apogee alt
475.9 km
Semi-major
6,853.4 km
B*
8.7115e-4
RAAN
239.4557°
Arg perigee
73.9365°
Mean anomaly
286.1746°
Rev number
4,102

§ Raw data

STARLINK-348551 65416U 25192N   26144.74875469  .00025527  00000+0  87115-3 0  99932 65416  53.1569 239.4557 0001009  73.9365 286.1746 15.30195542 41027

JSON: /api/v1/satellites/65416 · /tle

For live sub-satellite position, see the globe view (requires WebGL).

§ Visibility from observer

Set your observer location to see the next 7 days of passes ≥ 10°. The values pass through the URL so the page stays shareable.

No JS? Fill the form by hand. The geolocation button needs JavaScript.